Hourly Data Report for October 19, 2014

All times are specified in Local Standard Time (LST). Add 1 hour to adjust for Daylight Saving Time where and when it is observed.

QIKIQTARJUAQ A
NUNAVUT

67°32'48.000" N
64°01'54.000" W
5.50 m
2400577
YVM

Download Data

Hourly Data (October 2014)
Hourly Data Report for October 19, 2014
Temp Definition
°C
Dew Point Temp Definition
°C
Rel Hum Definition
%
Wind Dir Definition
10's deg

Wind Spd Definition
km/h
Visibility Definition
km
Stn Press Definition
kPa
Hmdx Definition


Wind Chill Definition


Weather Definition


TIME
00:00 Legend Double Dagger -5.3 -9.8 71 19 22 16.1 101.43   -12 LegendNANA
01:00 Legend Double Dagger -5.1 -9.6 71 19 15 16.1 101.44   -11 LegendNANA
02:00 Legend Double Dagger -5.4 -9.9 71 18 15 16.1 101.44   -11 LegendNANA
03:00 Legend Double Dagger -5.3 -10.5 67 17 18 16.1 101.47   -12 LegendNANA
04:00 Legend Double Dagger -5.9 -10.3 71 19 18 16.1 101.49   -12 LegendNANA
05:00 Legend Double Dagger -7.4 -11.4 73 18 11 16.1 101.51   -12 LegendNANA
06:00 Legend Double Dagger -7.1 -11.3 72 19 21 16.1 101.54   -14 LegendNANA
07:00 Legend Double Dagger -6.2 -10.5 72 20 21 16.1 101.53   -13 LegendNANA
08:00 Legend Double Dagger -6.9 -11.1 72 14 8 16.1 101.53   -11 LegendNANA
09:00 Legend Double Dagger -6.1 -10.7 70 18 15 16.1 101.50   -12 LegendNANA
10:00 Legend Double Dagger -5.7 -10.6 69 16 9 16.1 101.49   -10 LegendNANA
11:00 Legend Double Dagger -5.6 -11.2 65 13 5 16.1 101.47   -8 LegendNANA
12:00 Legend Double Dagger -6.0 -10.3 72 18 8 16.1 101.47   -10 LegendNANA
13:00 Legend Double Dagger -5.1 -10.0 69 12 5 16.1 101.45   -7 LegendNANA
14:00 Legend Double Dagger -5.2 -10.2 68 21 11 16.1 101.44   -10 LegendNANA
15:00 Legend Double Dagger -6.1 -11.1 68 LegendMM 5 16.1 101.46   -9 LegendNANA
16:00 Legend Double Dagger -5.3 -9.6 72   0 16.1 101.51     LegendNANA
17:00 Legend Double Dagger -6.5 -10.8 72 LegendMM 4 16.1 101.51   -8 LegendNANA
18:00 Legend Double Dagger -6.0 -9.6 76 17 4 16.1 101.51   -8 LegendNANA
19:00 Legend Double Dagger -5.9 -11.3 66   0 16.1 101.51     LegendNANA
20:00 Legend Double Dagger -5.9 -10.8 69 15 5 16.1 101.52   -8 LegendNANA
21:00 Legend Double Dagger -5.9 -10.0 73 13 8 16.1 101.54   -10 LegendNANA
22:00 Legend Double Dagger -6.7 -9.7 79 14 9 16.1 101.52   -11 LegendNANA
23:00 Legend Double Dagger -5.4 -8.7 78 14 9 16.1 101.52   -9 LegendNANA

Notes on Data Quality.

Legend

  • E = Estimated
  • M = Missing
  • NA = Not Available
  • ‡ = Partner data that is not subject to review by the National Climate Archives
Date modified: